CW4427 Weather Reports


Display with metric or nautical units.
time (UTC)temp
F
wind
direction
speed
MPH
gust
MPH
rain 1hr
in
rain 24hr
in
rain mn
in
humidity
%
barometer
mb
20260504011911 66 219 0.0 0.0 0.00 0.00 0.00 49 1015.4
20260504011410 66 219 0.0 0.0 0.00 0.00 0.00 48 1015.3
20260504010910 67 219 0.0 1.0 0.00 0.00 0.00 47 1015.2
20260504010409 68 219 0.0 2.0 0.00 0.00 0.00 45 1015.3
20260504005909 68 219 1.0 3.0 0.00 0.00 0.00 45 1015.3
20260504005409 69 197 0.0 3.0 0.00 0.00 0.00 44 1015.3
20260504004908 69 215 0.0 2.0 0.00 0.00 0.00 43 1015.3
20260504004408 69 184 0.0 2.0 0.00 0.00 0.00 43 1015.3
20260504003907 70 184 0.0 2.0 0.00 0.00 0.00 42 1015.3
20260504002906 70 198 1.0 5.0 0.00 0.00 0.00 41 1015.2
20260504002406 70 188 0.0 6.0 0.00 0.00 0.00 41 1015.4
20260504001905 71 242 0.0 6.0 0.00 0.00 0.00 40 1015.3
20260504000404 71 249 2.0 6.0 0.00 0.00 0.00 39 1015.3
20260503235903 72 175 2.0 6.0 0.00 0.00 0.00 39 1015.4
20260503234902 72 246 3.0 5.0 0.00 0.00 0.00 38 1015.3
20260503233901 72 227 3.0 6.0 0.00 0.00 0.00 37 1015.3
20260503233401 72 213 2.0 6.0 0.00 0.00 0.00 38 1015.5
20260503232900 72 231 1.0 7.0 0.00 0.00 0.00 37 1015.5
20260503232400 73 233 1.0 10.0 0.00 0.00 0.00 36 1015.6
20260503231859 73 187 6.0 10.0 0.00 0.00 0.00 36 1015.5
20260503231359 73 275 9.0 9.0 0.00 0.00 0.00 35 1015.5
20260503230858 73 193 1.0 8.0 0.00 0.00 0.00 34 1015.6
20260503230357 73 159 6.0 9.0 0.00 0.00 0.00 36 1015.7
20260503225858 73 166 7.0 9.0 0.00 0.00 0.00 35 1015.6
20260503225357 74 201 2.0 7.0 0.00 0.00 0.00 34 1015.5
20260503224856 74 262 1.0 7.0 0.00 0.00 0.00 33 1015.7
20260503224356 74 291 1.0 10.0 0.00 0.00 0.00 33 1015.8
20260503223856 74 227 2.0 10.0 0.00 0.00 0.00 35 1015.9
20260503223355 74 202 4.0 8.0 0.00 0.00 0.00 34 1016.1
20260503222855 74 154 2.0 7.0 0.00 0.00 0.00 33 1016.0
20260503222355 75 192 2.0 7.0 0.00 0.00 0.00 35 1016.3
20260503221854 74 250 2.0 7.0 0.00 0.00 0.00 33 1016.2
20260503220923 75 190 2.0 10.0 0.00 0.00 0.00 34 1016.4
20260503220423 75 180 4.0 12.0 0.00 0.00 0.00 33 1016.4
20260503215922 75 67 3.0 12.0 0.00 0.00 0.00 32 1016.4
20260503215421 75 228 3.0 8.0 0.00 0.00 0.00 32 1016.5
20260503214421 76 257 3.0 9.0 0.00 0.00 0.00 34 1016.5
20260503213920 75 192 2.0 9.0 0.00 0.00 0.00 33 1016.6
20260503213420 76 194 1.0 7.0 0.00 0.00 0.00 32 1016.7
20260503212920 76 212 5.0 6.0 0.00 0.00 0.00 33 1016.8
20260503212419 76 223 2.0 6.0 0.00 0.00 0.00 32 1016.8
20260503210917 76 233 5.0 9.0 0.00 0.00 0.00 33 1017.1
20260503210417 75 298 3.0 9.0 0.00 0.00 0.00 35 1017.2
20260503205916 75 308 2.0 14.0 0.00 0.00 0.00 31 1017.2
20260503205415 77 190 5.0 14.0 0.00 0.00 0.00 31 1017.4
20260503204915 76 348 0.0 8.0 0.00 0.00 0.00 31 1017.4
20260503204414 77 360 1.0 8.0 0.00 0.00 0.00 33 1017.5
20260503203414 77 223 0.0 8.0 0.00 0.00 0.00 34 1017.6
20260503202913 75 194 7.0 8.0 0.00 0.00 0.00 33 1017.7
20260503202412 75 214 4.0 11.0 0.00 0.00 0.00 35 1017.7
20260503201912 75 210 7.0 12.0 0.00 0.00 0.00 32 1017.8
20260503201412 75 217 2.0 12.0 0.00 0.00 0.00 34 1017.9
20260503200912 75 184 1.0 10.0 0.00 0.00 0.00 35 1018.1
20260503200411 75 181 7.0 10.0 0.00 0.00 0.00 34 1018.1
20260503195910 76 251 4.0 7.0 0.00 0.00 0.00 37 1018.3
20260503195410 75 299 4.0 7.0 0.00 0.00 0.00 33 1018.4
20260503194909 75 206 2.0 13.0 0.00 0.00 0.00 34 1018.5
20260503194409 74 267 1.0 13.0 0.00 0.00 0.00 34 1018.6
20260503193408 74 174 3.0 11.0 0.00 0.00 0.00 35 1018.7
20260503192907 75 233 3.0 11.0 0.00 0.00 0.00 32 1018.7
20260503191906 75 311 6.0 9.0 0.00 0.00 0.00 37 1018.9
20260503191406 74 267 6.0 11.0 0.00 0.00 0.00 35 1018.9
20260503190906 74 193 8.0 11.0 0.00 0.00 0.00 34 1019.0
20260503190405 75 162 6.0 10.0 0.00 0.00 0.00 33 1019.0
20260503185905 75 220 4.0 11.0 0.00 0.00 0.00 34 1019.2
20260503185404 74 210 3.0 11.0 0.00 0.00 0.00 35 1019.2
20260503184904 75 237 1.0 9.0 0.00 0.00 0.00 36 1019.3
20260503184403 73 234 0.0 11.0 0.00 0.00 0.00 38 1019.5
20260503182902 74 188 0.0 14.0 0.00 0.00 0.00 36 1019.8
20260503182401 73 194 3.0 14.0 0.00 0.00 0.00 36 1019.9
20260503181901 74 202 6.0 10.0 0.00 0.00 0.00 35 1019.9
20260503181400 74 179 3.0 10.0 0.00 0.00 0.00 40 1020.1
20260503180900 73 296 1.0 8.0 0.00 0.00 0.00 39 1020.1
20260503180359 73 199 5.0 8.0 0.00 0.00 0.00 37 1020.2
20260503175859 73 197 3.0 7.0 0.00 0.00 0.00 41 1020.2
20260503175359 72 192 3.0 9.0 0.00 0.00 0.00 39 1020.4
20260503174859 72 275 0.0 9.0 0.00 0.00 0.00 37 1020.6
20260503174359 72 275 0.0 9.0 0.00 0.00 0.00 41 1020.7
20260503173858 71 207 5.0 8.0 0.00 0.00 0.00 37 1020.8
20260503173359 72 197 3.0 10.0 0.00 0.00 0.00 41 1020.9
20260503172358 71 326 0.0 10.0 0.00 0.00 0.00 35 1021.0
20260503171859 72 181 8.0 10.0 0.00 0.00 0.00 41 1021.0
20260503171358 72 182 3.0 10.0 0.00 0.00 0.00 41 1021.1
20260503170858 71 298 3.0 12.0 0.00 0.00 0.00 37 1021.3
20260503170359 71 208 7.0 12.0 0.00 0.00 0.00 39 1021.3
20260503150853 65 240 0.0 8.0 0.00 0.00 0.00 48 1022.0
20260503150353 64 93 1.0 8.0 0.00 0.00 0.00 47 1022.0
20260503131351 55 177 0.0 7.0 0.00 0.00 0.00 70 1021.9
20260503130851 55 184 3.0 7.0 0.00 0.00 0.00 70 1022.0
20260503130421 55 181 5.0 7.0 0.00 0.00 0.00 70 1022.1
20260503081352 45 83 0.0 0.0 0.00 0.00 0.00 89 1020.6
20260503080852 45 83 0.0 0.0 0.00 0.00 0.00 89 1020.6
20260503080351 45 83 0.0 0.0 0.00 0.00 0.00 89 1020.6
20260503072919 46 83 0.0 0.0 0.00 0.00 0.00 86 1020.5
20260503072418 46 83 0.0 0.0 0.00 0.00 0.00 86 1020.5
20260503071918 47 83 0.0 0.0 0.00 0.00 0.00 86 1020.6
20260503071417 47 83 0.0 0.0 0.00 0.00 0.00 85 1020.6
20260503070416 47 83 0.0 0.0 0.00 0.00 0.00 85 1020.5
20260503054909 50 83 0.0 0.0 0.00 0.00 0.00 78 1020.5
20260503053907 51 83 0.0 0.0 0.00 0.00 0.00 76 1020.5
20260503053407 51 83 0.0 0.0 0.00 0.00 0.00 76 1020.4
20260503052906 51 83 0.0 0.0 0.00 0.00 0.00 75 1020.4
20260503052406 51 83 0.0 0.0 0.00 0.00 0.00 76 1020.3
20260503051405 51 83 0.0 0.0 0.00 0.00 0.00 76 1020.3
20260503050905 51 83 0.0 0.0 0.00 0.00 0.00 75 1020.3
20260503050404 51 83 0.0 0.0 0.00 0.00 0.00 73 1020.2
20260503045904 52 83 0.0 0.0 0.00 0.00 0.00 73 1020.2
20260503045403 52 83 0.0 0.0 0.00 0.00 0.00 71 1020.2
20260503044902 53 83 0.0 0.0 0.00 0.00 0.00 70 1020.2
20260503043901 53 83 0.0 0.0 0.00 0.00 0.00 69 1020.1
20260503043401 54 83 0.0 0.0 0.00 0.00 0.00 68 1020.1
20260503042900 54 83 0.0 2.0 0.00 0.00 0.00 67 1020.1
20260503042400 54 83 0.0 4.0 0.00 0.00 0.00 67 1019.9
20260503041859 54 36 1.0 4.0 0.00 0.00 0.00 66 1020.0
20260503041359 54 46 1.0 2.0 0.00 0.00 0.00 66 1019.9
20260503040859 55 46 0.0 4.0 0.00 0.00 0.00 66 1019.9
20260503040358 55 28 0.0 4.0 0.00 0.00 0.00 66 1019.9
20260503034856 55 49 0.0 3.0 0.00 0.00 0.00 63 1020.0
20260503034356 55 89 0.0 0.0 0.00 0.00 0.00 63 1019.9
20260503033855 55 106 0.0 2.0 0.00 0.00 0.00 62 1019.9
20260503033355 56 61 0.0 2.0 0.00 0.00 0.00 62 1019.8
20260503032855 56 69 0.0 3.0 0.00 0.00 0.00 61 1019.8
20260503032354 56 94 2.0 4.0 0.00 0.00 0.00 60 1019.8
20260503031923 56 61 0.0 4.0 0.00 0.00 0.00 59 1019.7
20260503030923 56 32 2.0 6.0 0.00 0.00 0.00 59 1019.6
20260503030422 57 160 0.0 7.0 0.00 0.00 0.00 57 1019.5
20260503025921 57 9 5.0 7.0 0.00 0.00 0.00 58 1019.5
20260503025421 56 42 4.0 10.0 0.00 0.00 0.00 58 1019.4
20260503023920 54 49 0.0 0.0 0.00 0.00 0.00 65 1019.1
20260503023420 55 49 0.0 0.0 0.00 0.00 0.00 63 1019.0
20260503022919 55 49 0.0 0.0 0.00 0.00 0.00 62 1019.0
20260503022419 55 49 0.0 0.0 0.00 0.00 0.00 61 1018.9
20260503021918 55 49 0.0 0.0 0.00 0.00 0.00 62 1018.9
20260503020416 56 49 0.0 0.0 0.00 0.00 0.00 60 1018.6
20260503015916 56 49 0.0 0.0 0.00 0.00 0.00 57 1018.5
20260503015415 57 49 0.0 0.0 0.00 0.00 0.00 56 1018.5
20260503014915 57 49 0.0 0.0 0.00 0.00 0.00 54 1018.5
20260503014415 57 49 0.0 0.0 0.00 0.00 0.00 54 1018.4
20260503013914 58 49 0.0 0.0 0.00 0.00 0.00 54 1018.3
20260503013413 58 49 0.0 0.0 0.00 0.00 0.00 54 1018.2
20260503012913 59 49 0.0 0.0 0.00 0.00 0.00 52 1018.2